Regional Weather Roundup
Issued by NWS Wakefield, VA

Home | Current Version | Previous Version | Graphics & Text | Print | Product List | Glossary On
Versions: 1 2 3 4 5 6 7 8 9 10 11 12 13 14 15 16 17 18 19 20 21 22 23 24 25 26 27
000
ASUS41 KAKQ 231715
RWRAKQ

REGIONAL WEATHER ROUNDUP
NATIONAL WEATHER SERVICE WAKEFIELD VA
100 PM EDT TUE MAY 23 2017

Note: "fair" indicates few or no clouds below 12,000 feet with no
significant weather and/or obstructions to visibility. * = Denotes
station may not report precipitation (e.g., rain,snow,etc.),
thunder or fog.

VAZ042-051-052>054-056-231800-
NORTHERN VIRGINIA

CITY           SKY/WX    TMP DP  RH WIND       PRES   REMARKS
WASH NATIONAL  CLOUDY    66  59  78 E12       29.92F
DULLES         LGT RAIN  64  55  72 NE6       29.93F
FORT BELVOIR   CLOUDY    66  57  72 NE3       29.91F
QUANTICO       CLOUDY    66  60  81 NE8       29.92F
FREDERICKSBRG* CLOUDY    66  60  81 NE5       29.90F
STAFFORD*      CLOUDY    65  61  87 E5        29.95F
WARRENTON      CLOUDY    66  56  70 E6        29.91F
CULPEPER*      DRIZZLE   65  59  82 NE3       29.93F
MANASSAS*      CLOUDY    65  58  78 E9        29.92F
LEESBURG*      DRIZZLE   64  57  77 NE5       29.95S
WINCHESTER     CLOUDY    61  50  67 E5        29.93F
FRONT ROYAL*   CLOUDY    61  54  77 MISG      29.92F
LURAY*         CLOUDY    63  54  72 N8        29.92F
$$

VAZ048-049-060>072-079>083-231800-
CENTRAL AND SOUTH CENTRAL VIRGINIA

CITY           SKY/WX    TMP DP  RH WIND       PRES   REMARKS
RICHMOND       CLOUDY    65  63  93 NE7       29.89F FOG
CHESTERFIELD*  NOT AVBL
PETERSBURG*    DRIZZLE   64  63  94 CALM      29.88F
HANOVER        CLOUDY    65  59  81 VRB6      29.90F
TAPPAHANNOCK*  CLOUDY    66  63  89 NE5       29.91F
QUINTON*       CLOUDY    65  65 100 E5        29.88F
CHARLOTTSVILLE LGT RAIN  63  55  75 NE9       29.91F
GORDONSVILLE*  CLOUDY    62  57  82 NE6       29.90F
ORANGE*        LGT RAIN  63  55  77 NE5       29.91F
LOUISA*        CLOUDY    68  63  83 CALM      29.89F
BUMPASS*       CLOUDY    65  61  87 E7        29.90F
FARMVILLE*     LGT RAIN  62  62 100 NE7       29.88S
CREWE*         CLOUDY    64  60  87 NE8       29.87F
FORT PICKETT*  CLOUDY   N/A N/A N/A E9        29.87F
CHASE CITY*    CLOUDY    62  60  94 NE3       29.86S
CLARKSVILLE*   CLOUDY    64  64 100 N7        29.84F
SOUTH HILL*    CLOUDY    64  64 100 E5        29.90F
LAWRENCEVILLE* CLOUDY    64  64  97 E5        29.86F
EMPORIA*       CLOUDY    64  64 100 NE6       29.86F
$$

VAZ088>098-231800-
SOUTHEAST VIRGINIA

CITY           SKY/WX    TMP DP  RH WIND       PRES   REMARKS
NORFOLK        LGT RAIN  63  62  97 E9        29.88F
VIRGINIA BEACH NOT AVBL
NORFOLK NAVAL  LGT RAIN  65  62  90 E12       29.89S FOG
WEST POINT*    CLOUDY    65  63  92 E9        29.91F
SALUDA*        CLOUDY    64  62  96 E7        29.90F
NEWPORT NEWS   CLOUDY    65  62  90 E10       29.88F
LANGLEY AFB    LGT RAIN  64  63  94 E10       29.88S
FORT EUSTIS    CLOUDY    66  62  87 E8        29.86F
WILLIAMSBURG*  CLOUDY    66  66 100 CALM      29.89F
HR EXEC AP*    CLOUDY    64  63  94 E7        29.86F
FRANKLIN*      LGT RAIN  65  64  94 E5        29.88S
US460-WAKEFLD  LGT RAIN  65  63  93 E8        29.87F
$$

VAZ020-022-025-037-045-231800-
WEST CENTRAL AND SOUTHWEST VIRGINIA

CITY           SKY/WX    TMP DP  RH WIND       PRES   REMARKS
STAUNTON*      CLOUDY    61  50  67 E3        29.94S
WAYNESBORO*    CLOUDY    59  54  82 NE6       29.92F
HOT SPRINGS VA RAIN      50  48  93 E6        29.95S VSB 3/4
LYNCHBURG      CLOUDY    59  54  83 NE10      29.90S
DANVILLE       CLOUDY    62  61  96 NE13      29.85F
SOUTH BOSTON*  CLOUDY    61  59  95 NE7       29.85F
MARTINSVILLE   LGT RAIN  61  59  91 NE8       29.88F
ROANOKE        CLOUDY    62  57  83 NE5       29.90F
BLACKSBURG     CLOUDY    58  54  85 E7        29.92F
DUBLIN*        CLOUDY    59  53  82 E9        29.90F
MARION*        LGT RAIN  62  59  90 E8        29.88F
HILLSVILLE*    LGT RAIN  60  56  87 E3        29.86F
RICHLANDS*     LGT RAIN  63  59  89 SE7       29.84F
WISE*          RAIN      63  59  88 S5        29.84F
ABINGDON*      DRIZZLE   65  63  93 E8        29.82F
$$

MDZ021>025-VAZ099-100-231800-
SOUTHERN MARYLAND AND THE DELMARVA PENINSULA

CITY           SKY/WX    TMP DP  RH WIND       PRES   REMARKS
PATUXENT RIVER NOT AVBL
BAY BRIDGE APT CLOUDY    64  59  82 NE6       29.93F
LEONARDTOWN    CLOUDY    63  59  88 E5        29.93F
DOVER          PTSUNNY   65  65 100 SE7       29.93F
GEORGETOWN     CLOUDY    63  53  70 E10       29.94F
EASTON         PTSUNNY   64  57  77 SE8       29.96F
CAMBRIDGE      CLOUDY    63  59  88 E8        29.93F
SALISBURY      LGT RAIN  62  55  77 E13       29.92F
OCEAN CITY     LGT RAIN  61  56  83 E9        29.94F
WALLOPS ISLAND LGT RAIN  60  60 100 NE14      29.92F
ACCOMACK*      CLOUDY    62  49  61 E12       29.91S HAZE
$$

NCZ012>017-030>032-231800-
NORTH CENTRAL AND EASTERN NORTH CAROLINA

CITY           SKY/WX    TMP DP  RH WIND       PRES   REMARKS
ROANOKE RAPIDS LGT RAIN  66  66 100 E10       29.84F
RALEIGH        CLOUDY    71  67  87 E6        29.82F
ELIZABETH CITY LGT RAIN  67  67 100 NE14      29.84F FOG
AHOSKIE*       RAIN      65  64  97 NE8       29.84F
EDENTON*       DRIZZLE   69  67  92 E8        29.85F
CURRITUCK*     DRIZZLE  N/A N/A N/A E10       29.87F
KILL DEVIL HLS NOT AVBL
MANTEO         DRIZZLE   68  67  99 SE10      29.85F
CAPE HATTERAS  NOT AVBL
TARBORO*       NOT AVBL
GOLDSBORO      NOT AVBL
WASHINGTON     DRIZZLE   70  69  96 E3        29.81F
GREENVILLE     CLOUDY    70  70 100 E7        29.84F
NEW BERN       CLOUDY    74  73  97 S9        29.80F
WILMINGTON     CLOUDY    78  73  84 S8        29.81S
$$

VAZ048-231800-
ELSEWHERE

CITY           SKY/WX    TMP DP  RH WIND       PRES   REMARKS
HARRISBURG PA  CLOUDY    65  50  58 SE3       29.93F
BALTIMORE      CLOUDY    64  57  78 E9        29.92F
ANNAPOLIS      CLOUDY    66  60  81 NE6       29.92F
ANDREWS AFB    CLOUDY    64  57  77 E8        29.91F
PHILADELPHIA   CLOUDY    68  54  60 E8        29.94S
HENDERSON NC   CLOUDY    65  63  93 NE10      29.84F
GREENSBORO     LGT RAIN  64  64 100 NE9       29.82S
ROCKY MOUNT    CLOUDY    69  68  96 VRB6      29.82F
$$

VAZ100-231800-
MARINE

STATION/POSITION TIME  TEMP    WIND        PRES    WAVE   SWELL
                       AIR SEA DIR/SP/G            HT/PER HT/PER
                 (UTC) (F)     (DEG/KT/KT) (MB)    (FT/S) (FT/S)
CAPE MAY NJ      1648   61 61   70/  7/ 11 1013.8R
LEWES DE         1648   60 62   90/  8/ 11 1014.0R
15NM E FENWICK I 1550   57 56   30/  6/  8 1014.4    3/ 8   3/ 8
OCEAN-CITY-INLET 1648   60 62   80/  7/ 10 1013.9F
WACHAPREAGUE VA  1648   61 68   60/ 13/ 16 1012.4F
THOMAS POINT MD  1700   63 65   30/  6/  7   N/A
GOOSES REEF MD   1700   65 58  110/ 10/ 14 1013.8    1/ 2
COVE POINT MD    1648   63     120/ 10/ 12 1013.4F
SOLOMONS ISLAND  1648   64 67   80/ 12/ 13   N/A
BISHOPS HEAD MD  1648   63 68   60/ 10/ 12 1013.5F
PINEY POINT MD   1648          120/ 12/ 14   N/A
POTOMAC MD       1700   64 67   90/ 12/ 14 1012.1    1/ 3
CAMBRIDGE MD     1642   63 69                N/A
LEWISETTA VA     1648   65 69   90/ 14/ 15 1012.7F
RAPPAHANNOCK LGT 1648           70/ 15/ 16 1013.0F
STINGRAY PT      1650   64     120/ 14/ 16 1012.4F
YORK RVR RNG VA  1648   64     100/ 14/ 16 1011.4F
YORKTOWN VA      1648   65 69  100/ 11/ 15 1011.7F
JAMESTOWN VA     1700   65 73   90/  8/ 12   N/A     0
DOMINION TERM VA 1648   64      90/ 10/ 16 1011.9F
KIPTOPEKE VA     1648      66   90/ 10/ 15   N/A
CHES BAY BRIDGE  1648   62 67   90/ 16/ 20 1011.6F
CAPE HENRY VA    1648   62      70/ 16/ 18   N/A
WILLOUBY STN VA  1648   63      90/ 15/ 17 1011.5F
S CRANEY ISL VA  1648   64      90/ 10/ 12 1011.5F
CAPE HENRY BUOY  1642      62                N/A     3/ 7
1ST LANDING BUOY 1700   63 67              1012.1    2/ 3
CAPE CHARLES BUO 1651      62                N/A     3/ 6
64NM E OF VA BCH 1650   66 64   90/ 14/ 17 1011.9F   4/ 5   2/ 8
DUCK PIER NC     1648   65 65   90/ 12/ 15 1010.4F
44100 DUCK FRF   1635      65                N/A     4/ 4
44056 DUCK FRF   1630      65                N/A     3/ 8
OREGON INLET NC  1648           80/  8/ 10   N/A
HATTERAS NC      1648   72 74  190/  5/  9 1010.0F
DIAMOND SHLS NC  1650   75 77  210/ 23/ 27 1009.9F   4/ 5   2/11
CAPE LOOKOUT NC  1600   74     200/ 15/ 19 1010.2F
$$




USA.gov is the U.S. government's official web portal to all federal, state and local government web resources and services.